www.pogodaiklimat.ru

Погода и климат >> Архив погоды >> Россия >> Приморский край >> Сосуново


ПОГОДА в Сосуново

  • Прогноз погоды в Сосуново
  • Монитор погоды в Сосуново
  • Климат города

АРХИВ ПОГОДЫ в Сосуново

Время (UTC), дата Ветер
(напр.,м/с)
 
Видим.   Явления Облачность Т
(С)
Тd
(С)
f
(%)
Тe
(С)
Тes
(С)
Комфортность P
(гПа)
Po
(гПа)
Тmin
(С)
Tmax
(С)
R
(мм)
R24
(мм)
S
(см)
06 23.04 ЮВ 2 20 км 10/10 600 м
[Sc]
+3.3 +0.3 81 0 0 1020.3 1019.9
09 23.04 Ю 1 20 км 10/10 600 м
[Sc]
+2.9 +0.2 82 +1 +1 1021.1 1020.7 +3.9 0.0
12 23.04 ЮЗ 2 20 км 8/8 600 м
[Sc]
+2.7 +0.5 85 -0 -0 1022.5 1022.1
15 23.04 ЮЗ 2 20 км 9/9 600 м
[Sc]
+2.3 +0.3 87 -1 -1 1022.6 1022.2
18 23.04 З 1 20 км 10/10 300 м
[St]
+2.5 +0.9 89 +1 +1 1022.3 1021.9
21 23.04 ЮЗ 2 10 км слабый дождь 10/3 300 м
[Frnb As op]
+2.5 +1.2 91 -1 -1 1022.5 1022.1 +2.3 0.0
00 24.04 ЮЗ 3 10 км слабый дождь 10/4 300 м
[Frnb As op]
+3.4 +2.1 91 -1 0 1022.2 1021.8
03 24.04 Ю 2 10 км слабый дождь 10/3 300 м
[Frnb As op]
+3.7 +2.3 91 +1 +3 1021.6 1021.2
06 24.04 Ю 4 20 км {дождь} 5/5 600 м
[Sc]
+4.5 +2.4 86 0 +3 1020.4 1020.0
09 24.04 СВ 1 10 км туман местами 8/8 600 м
[Sc]
+2.7 +1.5 92 +1 +1 1021.0 1020.6 +6.3 0.9
12 24.04 Ю 3 10 км в посл. час туман 5/5 600 м
[Sc]
+1.9 +0.8 92 -3 -3 1022.8 1022.4
15 24.04 СВ 1 500 м туман ?/? +1.9 +1.0 94 0 0 1021.5 1021.1
18 24.04 СВ 2 500 м туман ?/? +2.5 +1.6 94 -1 -1 1020.7 1020.3
21 24.04 С 3 10 км слабая морось {туман} 10/10 300 м
[St]
+2.4 +1.5 94 -2 -2 1019.8 1019.4 +1.5 0.4
00 25.04 С 6 10 км в посл. час морось {туман} 10/10 300 м
[St]
+2.9 +1.8 92 -3 -3 1018.1 1017.7
03 25.04 СВ 9-11
{12}
10 км слабая морось 10/10 300 м
[St]
+2.6 +1.5 92 -5 -5 1015.8 1015.4
06 25.04 С 5
{12}
10 км слабый дождь {морось} 10/10 300 м
[Frnb Ns]
+2.6 +1.5 92 -3 -3 1011.7 1011.3
09 25.04 С 1 20 км в посл. час дождь 10/3 600 м
[Sc As op]
+3.2 +1.4 88 +2 +2 1009.2 1008.8 +3.3 6
12 25.04 ЮЗ 3 20 км {дождь} 3/3 600 м
[Sc]
+0.2 -0.8 93 -5 -5 1010.3 1009.9
15 25.04 ЮЗ 5 н/о н/о +0.2 -0.5 95 -6 -6 1009.8 1009.4
18 25.04 ЮЗ 5 н/о н/о -0.1 -0.8 95 -6 -6 1009.5 1009.1
21 25.04 ЮЗ 6 50 км 3/3 1000 м
[Sc]
+0.2 -0.7 94 -7 -6 1009.0 1008.6 -0.6
00 26.04 ЮЗ 4 50 км 8/8 600 м
[Sc]
+5.9 +2.8 80 +2 +4 1007.6 1007.2
03 26.04 ЮЗ 3 20 км 9/9 600 м
[Sc]
+10.3 +0.4 50 +9 +10 1006.4 1006.0
06 26.04 ЮЗ 4
{13}
50 км 8/3 600 м
[Cu med, cong Cs]
+11.1 +0.1 47 +9 +13 1004.7 1004.3
09 26.04 Ю 4 20 км 8/3 600 м
[Sc diur, vesp Ci]
+7.7 +0.4 60 +5 +5 1004.1 1003.7 +12.0 0.5
12 26.04 ЮЗ 1 20 км 8/0
[As op]
+4.2 +1.6 83 +3 +3 1004.2 1003.8
15 26.04 СВ 5 20 км 5/0
[As op]
+2.3 +0.6 89 -3 -3 1003.0 1002.6
18 26.04 С 8-11
{12}
500 м туман ?/? +0.5 -0.2 95 -7 -7 1002.3 1001.9
21 26.04 С 6
{11}
2000 м ливневой снег {туман} 10/10 300 м
[Cb cap]
+0.1 -0.6 95 -7 -7 1001.9 1001.5 +0.1 1 1
00 27.04 С 4 10 км слабый снег {ливн. осадки} 10/3 300 м
[Frnb As op]
+0.6 -0.0 96 -5 -4 1001.5 1001.1 0.0
03 27.04 С 6 10 км {снег, дождь} 10/10 300 м
[St]
+2.2 +0.4 88 -4 -4 1001.1 1000.7
06 27.04 СВ 7 20 км {снег, дождь} 6/3 600 м
[Cu hum Ci fib]
+2.4 +0.5 87 -4 -2 999.9 999.5
09 27.04 СВ 7 500 м туман ?/? +0.2 -0.5 95 -7 -7 1000.3 999.9 +3.9 4
12 27.04 штиль 0 500 м туман ?/? -0.2 -0.7 96 -2 -2 1001.4 1001.0
15 27.04 ЮЗ 1 500 м туман ?/? -0.7 -1.2 96 -3 -3 1000.6 1000.2
18 27.04 ЮЗ 2 500 м туман ?/? -0.6 -1.2 96 -5 -5 999.7 999.3
21 27.04 СВ 1 500 м туман ?/? -0.3 -0.8 96 -3 -3 999.7 999.3 -1.3
00 28.04 ЮВ 2 500 м туман ?/? +0.9 +0.3 96 -3 -3 999.9 999.5
03 28.04 Ю 3 50 км 3/3 600 м
[Sc]
+3.6 +1.1 84 -0 +9 1000.1 999.7
06 28.04 Ю 1 50 км 3/3
[Sc]
+2.3 +0.4 87 +1 +8 999.7 999.3
09 28.04 С 2 10 км 10/10 300 м
[St]
+1.5 +0.6 94 -2 -2 999.7 999.3 +3.9
12 28.04 Ю 2 500 м туман ?/? +1.1 +0.4 95 -3 -3 1001.0 1000.6
15 28.04 ЮЗ 1 500 м туман ?/? +1.1 +0.4 95 -1 -1 1000.3 999.9
18 28.04 З 2 500 м туман ?/? +0.7 -0.0 95 -3 -3 999.8 999.4
21 28.04 ЮЗ 1 10 км {туман} 10/10 300 м
[St]
+1.0 +0.1 94 -1 -1 999.8 999.4 +0.5
00 29.04 ЮЗ 3 20 км {туман} 10/10 300 м
[St]
+2.3 +0.6 89 -2 -2 999.7 999.3
03 29.04 Ю 4 10 км 10/4 300 м
[St As trans]
+3.8 +1.1 83 -1 +2 999.1 998.7
06 29.04 Ю 4 10 км 10/10 200 м
[St]
+2.7 +1.0 89 -2 -2 998.2 997.8
09 29.04 Ю 3 20 км в посл. час туман 10/10 300 м
[St]
+2.8 +1.4 90 -1 -1 998.8 998.4 +4.4
12 29.04 С 5 4000 м дождь {туман} 10/10 300 м
[Frnb Ns]
+2.1 +1.3 94 -4 -4 1000.4 1000.0
15 29.04 С 2 20 км {дождь} 9/9 600 м
[Sc]
+2.8 +1.3 90 -0 -0 1000.5 1000.1
18 29.04 С 3
{10}
20 км {дождь} 10/10 600 м
[Sc]
+3.2 +1.6 89 -1 -1 999.5 999.1
21 29.04 С 5
{14}
4000 м дождь 10/10 300 м
[Frnb Ns]
+2.5 +1.1 90 -3 -3 998.4 998.0 +1.9 5
00 30.04 З 1 10 км в посл. час дождь 10/10 300 м
[Frnb Ns]
+2.9 +1.7 92 +1 +1 998.2 997.8

 

Местоположение метеостанции Сосуново (Приморский край, Россия): широта 46.55 долгота 138.30 высота над уровнем моря 4 м.

В архиве по умолчанию представлена погода в Сосуново за последнюю неделю. Архивные данные за месяц целиком и за предыдущие месяцы, начиная с января 2011 года, Вы можете получить, выбрав интересующий диапазон дат из раскрывающегося списка и нажав кнопку "Ввод!".

Внимание! Время в таблицах - всемирное. Для получения местного времени необходимо прибавить поправку, которая в Сосуново равна 10 ч.

Смотрите также архив погоды в соседних городах и на ближайших метеорологических станциях:

Погода в Охотничем (Приморский край, Россия) (107 км)
Погода в Агзу (Приморский край, Россия) (117 км)
Погода в Сукпае (Хабаровский край, Россия) (142 км)
Погода в Малой Кеме (Приморский край, Россия) (158 км)
Погода в Гвасюгах (Хабаровский край, Россия) (208 км)
Погода в Тернее (Приморский край, Россия) (217 км)
Погода на Остров Монерон (Сахалинская область, Россия) (225 км)
Погода в Красном Яре (Приморский край, Россия) (230 км)
Погода в Глубинном (Приморский край, Россия) (237 км)
Погода в Бичевой (Хабаровский край, Россия) (245 км)

Пояснения к столбцам:

Ветер - указаны скорость ветра в м/с - средняя за 10 мин, порывы в срок и между сроками (в фигурных скобках) и направление, откуда дует ветер: С - северный, СВ - северо-восточный, В - восточный, ЮВ - юго-восточный, Ю - южный, ЮЗ - юго-западный, З - западный, СЗ - северо-западный.
Видимость - горизонтальная дальность видимости в метрах или километрах. При видимости от 1 до 10 км при отсутствии осадков обычно наблюдается дымка, при ухудшении видимости до 1 км и менее - туман. В сухую погоду видимость может ухудшаться дымом, пылью или мглою.
Явления - указаны атмосферные явления, наблюдавшиеся в срок или в последний час перед сроком; фигурными скобками обозначены явления, наблюдавшиеся между сроками (за 1-3 часа до срока); квадратными скобками обозначены град или гололедные отложения с указанием их диаметра в мм.
Облачность - указаны через наклонную черту общая и нижняя облачность в баллах и высота нижней границы облаков в метрах; квадратными скобками обозначены формы облаков: Ci - перистые, Cs - перисто-слоистые, Cc - перисто-кучевые, Ac - высококучевые, As - высокослоистые, Sc - слоисто-кучевые, Ns - слоисто-дождевые, Cu - кучевые, Cb - кучево-дождевые. Подробнее классификацию облаков см. в Атласе облаков (PDF).
T - Температура воздуха - температура, измеренная на высоте 2 м над землей.
Td - Температура точки росы - температура, при понижении до которой содержащийся в воздухе водяной пар достигнет насыщения.
f - Относительная влажность воздуха - влажноcть воздуха, измеренная на высоте 2 м над землей.
Te - Эффективная температура - температура, которую ощущает одетый по сезону человек в тени. Характеристика душности погоды. При расчете учитывается влияние влажности воздуха и скорости ветра на теплоощущения человека.
Tes - Эффективная температура на солнце - температура, которую ощущает человек, с поправкой на солнечный нагрев. Характеристика знойности погоды. Зависит от высоты солнца над горизонтом, облачности и скорости ветра. Ночью, в пасмурную погоду, а также при ветре 12 м/с и более поправка равна нулю.
P - Атмосферное давление - приведенное к уровню моря атмосферное давление.
Po - Атмосферное давление - измеренное на уровне метеостанции атмосферное давление.
Tmin - Минимальная температура - минимум температуры воздуха на высоте 2 м над землей.
Tmax - Максимальная температура - максимум температуры воздуха на высоте 2 м над землей.
R - Количество осадков - Количество выпавших осадков за период времени, мм. При наведении курсора мыши на число - период времени, за который выпало указанное количество осадков.
R24 - Количество осадков - Количество выпавших осадков за 24 часа, мм.
S - Снежный покров - Высота снежного покрова, см. При наведении курсора мыши на число - состояние снежного покрова и степень покрытия местности в баллах.